Voltar ao catálogo

BREEZE-M R/B

AtivoMEO
NORAD 39729·ROCKET BODY·🇷🇺 Russia

Lançado Apr 28, 2014 de Baikonur Cosmodrome

Loading…

Próximas Passagens (próximas 24 horas)

TLE

EnvelhecendoSource: Space-Track

Época: Sep 1, 2026, 11:41 UTC

1 39729U 14023C   26244.48729835 -.00000112  00000-0  00000-0 0  9999
2 39729  10.3046  52.6218 0643946 202.3543 154.8529  0.92543694 41686

Acompanhe BREEZE-M R/B em tempo real com AllMySat

Download on the App Store